Location: Unspecified
(40.7945°N, 111.1337°W)
Time: 23:37:18
(UTC-06:00)

Vanguard 1 - Pass Details

Date: 04 July 2019
Orbit: 653 x 3830 km, 34.3° (Epoch: 12 October)

Event Time Altitude Azimuth Distance (km) Brightness Sun altitude
Rises 05:45:32 0° 280° (W) 7,722 14.2 -2.9°
Reaches altitude 10° 05:51:27 10° 276° (W) 6,395 13.7 -1.9°
Maximum altitude 06:08:53 49° 210° (SSW) 2,834 12.1 0.9°
Drops below altitude 10° 06:18:49 10° 139° (SE) 3,772 13.3 2.5°
Sets 06:21:22 0° 133° (SE) 4,439 13.7 2.9°
